GW4659 Weather Reports


time (UTC)temp
C
wind
direction
speed
KPH
gust
KPH
rain 1hr
cm
rain 24hr
cm
rain mn
cm
humidity
%
barometer
mb
20260504233959 24 281 0.0 3.2 0.00 0.00 0.00 39 1014.1
20260504232000 25 274 0.0 4.8 0.00 0.00 0.00 37 1014.3
20260504225959 25 17 1.6 6.4 0.00 0.00 0.00 38 1014.4
20260504223959 25 268 1.6 6.4 0.00 0.00 0.00 38 1014.5
20260504221001 25 280 1.6 9.7 0.00 0.00 0.00 37 1014.8
20260504220003 25 101 1.6 4.8 0.00 0.00 0.00 38 1014.6
20260504215000 25 109 1.6 4.8 0.00 0.00 0.00 38 1014.9
20260504214005 25 284 1.6 8.0 0.00 0.00 0.00 37 1014.8
20260504213000 26 276 0.0 8.0 0.00 0.00 0.00 39 1015.1
20260504212006 26 290 1.6 9.7 0.00 0.00 0.00 37 1015.0
20260504210003 27 285 1.6 4.8 0.00 0.00 0.00 36 1015.0
20260504204959 27 101 1.6 4.8 0.00 0.00 0.00 36 1015.0
20260504203959 27 343 1.6 9.7 0.00 0.00 0.00 36 1015.0
20260504203005 27 276 1.6 4.8 0.00 0.00 0.00 35 1015.2
20260504201959 27 61 1.6 4.8 0.00 0.00 0.00 35 1015.3
20260504200959 27 278 0.0 4.8 0.00 0.00 0.00 35 1015.4
20260504200002 26 277 1.6 4.8 0.00 0.00 0.00 37 1015.5
20260504194002 26 229 1.6 3.2 0.00 0.00 0.00 38 1015.8
20260504193000 26 89 1.6 4.8 0.00 0.00 0.00 36 1016.0
20260504190959 26 274 0.0 6.4 0.00 0.00 0.00 39 1016.0
20260504185959 26 94 1.6 3.2 0.00 0.00 0.00 38 1016.4
20260504185003 26 281 1.6 6.4 0.00 0.00 0.00 39 1016.6
20260504183959 27 265 0.0 4.8 0.00 0.00 0.00 41 1016.5
20260504182000 25 288 3.2 6.4 0.00 0.00 0.00 40 1016.9
20260504181003 26 295 1.6 8.0 0.00 0.00 0.00 40 1017.0
20260504180002 26 240 0.0 3.2 0.00 0.00 0.00 43 1017.2
20260504174959 26 247 0.0 12.9 0.00 0.00 0.00 44 1017.1
20260504173958 25 105 1.6 6.4 0.00 0.00 0.00 44 1017.2
20260504173000 26 289 0.0 4.8 0.00 0.00 0.00 40 1017.4
20260504172006 26 266 0.0 1.6 0.00 0.00 0.00 41 1017.6
20260504170959 25 288 1.6 6.4 0.00 0.00 0.00 44 1018.0
20260504140958 21 121 0.0 3.2 0.00 0.00 0.00 54 1018.9
20260504081959 7 271 0.0 0.0 0.00 0.00 0.00 90 1018.0
20260504080959 7 271 0.0 0.0 0.00 0.00 0.00 89 1018.3
20260504045016 9 271 0.0 0.0 0.00 0.00 0.00 81 1019.5
20260504044016 10 271 0.0 0.0 0.00 0.00 0.00 80 1019.5
20260504043017 10 271 0.0 0.0 0.00 0.00 0.00 80 1019.6
20260504041016 10 271 0.0 0.0 0.00 0.00 0.00 78 1019.6
20260504040018 10 271 0.0 0.0 0.00 0.00 0.00 77 1019.7
20260504033015 10 271 0.0 0.0 0.00 0.00 0.00 76 1020.1
20260504032015 11 271 0.0 0.0 0.00 0.00 0.00 75 1020.2
20260504031015 11 271 0.0 0.0 0.00 0.00 0.00 73 1020.1
20260504025016 11 271 0.0 0.0 0.00 0.00 0.00 71 1019.8
20260504024016 11 271 0.0 0.0 0.00 0.00 0.00 70 1019.7
20260504023017 12 271 0.0 0.0 0.00 0.00 0.00 69 1019.6
20260504022016 12 271 0.0 0.0 0.00 0.00 0.00 68 1019.6
20260504021017 12 271 0.0 0.0 0.00 0.00 0.00 67 1019.5
20260504020018 12 271 0.0 0.0 0.00 0.00 0.00 66 1019.4
20260504015016 12 271 0.0 0.0 0.00 0.00 0.00 64 1019.3
20260504014016 13 271 0.0 0.0 0.00 0.00 0.00 63 1019.4
20260504013016 13 271 0.0 0.0 0.00 0.00 0.00 62 1019.0
20260504012016 13 271 0.0 0.0 0.00 0.00 0.00 61 1019.0
20260504011015 14 271 0.0 0.0 0.00 0.00 0.00 60 1019.1
20260504010015 15 271 0.0 0.0 0.00 0.00 0.00 58 1019.0
20260504005015 15 271 0.0 0.0 0.00 0.00 0.00 56 1018.8
20260504004016 16 271 0.0 0.0 0.00 0.00 0.00 55 1018.9
20260504003016 17 271 0.0 0.0 0.00 0.00 0.00 53 1018.8
20260504002016 17 271 0.0 1.6 0.00 0.00 0.00 52 1018.6
20260504001017 18 271 0.0 0.0 0.00 0.00 0.00 47 1018.6
20260504000018 18 271 0.0 1.6 0.00 0.00 0.00 44 1018.7